GW4079 Weather Reports


time (UTC)temp
C
wind
direction
speed
KPH
gust
KPH
rain 1hr
cm
rain 24hr
cm
rain mn
cm
humidity
%
barometer
mb
20260503013101 18 93 3.2 9.7 0.00 0.00 0.00 34 1016.3
20260503011554 18 74 0.0 0.0 0.00 0.00 0.00 34 1016.2
20260503010058 17 74 0.0 0.0 0.00 0.00 0.00 34 1016.3
20260503004610 18 74 0.0 4.8 0.00 0.00 0.00 34 1016.5
20260503003103 18 53 4.8 6.4 0.00 0.00 0.00 34 1016.5
20260503001605 18 34 3.2 14.5 0.00 0.00 0.00 34 1016.7
20260503000049 18 65 6.4 14.5 0.00 0.00 0.00 34 1016.9
20260502234550 19 71 8.0 19.3 0.00 0.00 0.00 33 1017.1
20260502233031 19 5 3.2 22.5 0.00 0.00 0.00 32 1017.3
20260502231530 19 248 3.2 9.7 0.00 0.00 0.00 33 1017.3
20260502230034 18 5 9.7 19.3 0.00 0.00 0.00 35 1017.7
20260502224529 18 21 8.0 20.9 0.00 0.00 0.00 35 1017.8
20260502223031 18 255 3.2 8.0 0.00 0.00 0.00 34 1018.0
20260502221528 19 31 1.6 16.1 0.00 0.00 0.00 34 1018.0
20260502220035 18 65 6.4 17.7 0.00 0.00 0.00 34 1018.4
20260502214530 18 53 8.0 16.1 0.00 0.00 0.00 35 1018.5
20260502213028 19 15 14.5 29.0 0.00 0.00 0.00 34 1018.7
20260502211528 18 79 1.6 22.5 0.00 0.00 0.00 36 1018.8
20260502210031 18 28 9.7 20.9 0.00 0.00 0.00 37 1019.2
20260502204534 18 328 9.7 22.5 0.00 0.00 0.00 37 1019.1
20260502203029 18 83 3.2 16.1 0.00 0.00 0.00 37 1019.1
20260502201530 17 60 6.4 24.1 0.00 0.00 0.00 39 1019.3
20260502200029 18 327 12.9 25.7 0.00 0.00 0.00 36 1019.7
20260502194531 17 26 19.3 29.0 0.00 0.00 0.00 37 1019.7
20260502193035 18 29 12.9 24.1 0.00 0.00 0.00 36 1019.8
20260502191532 17 64 16.1 25.7 0.00 0.00 0.00 37 1019.9
20260502190033 17 39 17.7 27.4 0.00 0.00 0.00 39 1020.1
20260502184550 17 28 16.1 25.7 0.00 0.00 0.00 40 1020.0
20260502183032 17 31 3.2 22.5 0.00 0.00 0.00 38 1020.1
20260502181532 17 30 9.7 20.9 0.00 0.00 0.00 39 1020.4
20260502163034 16 53 12.9 25.7 0.00 0.00 0.00 40 1020.6
20260502161536 16 55 14.5 20.9 0.00 0.00 0.00 41 1020.8
20260502151532 14 78 14.5 20.9 0.00 0.00 0.00 44 1020.4
20260502123043 6 41 16.1 24.1 0.00 0.00 0.00 60 1018.9
20260502121530 7 61 17.7 24.1 0.00 0.00 0.00 59 1018.8
20260502114538 7 49 14.5 22.5 0.00 0.00 0.00 57 1018.0
20260502113041 7 62 14.5 24.1 0.00 0.00 0.00 54 1017.8
20260502111534 8 76 20.9 29.0 0.00 0.00 0.00 52 1017.7
20260502110038 8 71 16.1 20.9 0.00 0.00 0.00 51 1017.6
20260502104539 8 67 16.1 20.9 0.00 0.00 0.00 50 1017.3
20260502103037 9 73 16.1 22.5 0.00 0.00 0.00 47 1017.2
20260502101552 9 80 17.7 22.5 0.00 0.00 0.00 48 1017.0
20260502091532 9 39 11.3 25.7 0.00 0.00 0.00 42 1016.7
20260502070049 6 36 6.4 11.3 0.00 0.00 0.00 46 1015.8
20260502064542 6 36 8.0 12.9 0.00 0.00 0.00 44 1015.6
20260502063037 6 21 6.4 11.3 0.00 0.00 0.00 43 1015.7
20260502061537 7 39 9.7 14.5 0.00 0.00 0.00 42 1015.7
20260502060052 7 31 6.4 9.7 0.00 0.00 0.00 41 1015.7
20260502054544 8 34 8.0 14.5 0.00 0.00 0.00 39 1015.6
20260502053049 8 37 9.7 14.5 0.00 0.00 0.00 37 1015.6
20260502051547 8 34 11.3 16.1 0.00 0.00 0.00 36 1015.7
20260502050045 9 51 9.7 14.5 0.00 0.00 0.00 36 1015.6
20260502044537 10 45 9.7 16.1 0.00 0.00 0.00 33 1015.6
20260502043044 10 32 9.7 14.5 0.00 0.00 0.00 33 1015.5
20260502041546 10 34 8.0 12.9 0.00 0.00 0.00 31 1015.4
20260502040052 10 30 9.7 16.1 0.00 0.00 0.00 31 1015.6
20260502034550 11 36 9.7 14.5 0.00 0.00 0.00 30 1015.5
20260502033102 12 41 9.7 14.5 0.00 0.00 0.00 29 1015.3
20260502031554 12 30 8.0 12.9 0.00 0.00 0.00 29 1015.0
20260502030059 13 33 4.8 9.7 0.00 0.00 0.00 28 1015.1
20260502024554 14 329 3.2 8.0 0.00 0.00 0.00 26 1014.9
20260502023109 16 317 4.8 6.4 0.00 0.00 0.00 24 1014.9
20260502021551 18 287 4.8 6.4 0.00 0.00 0.00 22 1014.6
20260502020104 18 287 4.8 6.4 0.00 0.00 0.00 21 1014.7
20260502014600 20 287 6.4 14.5 0.00 0.00 0.00 19 1014.7